TimeCST,TemperatureF,Dew PointF,Humidity,Sea Level PressureIn,VisibilityMPH,Wind Direction,Wind SpeedMPH,Gust SpeedMPH,PrecipitationIn,Events,Conditions,WindDirDegrees,DateUTC
12:14 AM,30.2,28.4,93,30.13,7.0,Calm,Calm,-,N/A,,Clear,0,2012-11-15 06:14:00
12:34 AM,32.0,30.2,93,30.13,7.0,Calm,Calm,-,N/A,,Clear,0,2012-11-15 06:34:00
12:53 AM,32.0,28.4,87,30.12,7.0,Calm,Calm,-,N/A,,Clear,0,2012-11-15 06:53:00
1:14 AM,30.2,28.4,93,30.12,7.0,Calm,Calm,-,N/A,,Clear,0,2012-11-15 07:14:00
1:34 AM,32.0,30.2,93,30.12,7.0,Calm,Calm,-,N/A,,Clear,0,2012-11-15 07:34:00
1:53 AM,30.2,28.4,93,30.12,7.0,Calm,Calm,-,N/A,,Scattered Clouds,0,2012-11-15 07:53:00
2:14 AM,32.0,30.2,93,30.11,10.0,Calm,Calm,-,N/A,,Scattered Clouds,0,2012-11-15 08:14:00
2:34 AM,32.0,30.2,93,30.11,10.0,Calm,Calm,-,N/A,,Clear,0,2012-11-15 08:34:00
2:53 AM,33.8,30.2,87,30.11,10.0,Calm,Calm,-,N/A,,Clear,0,2012-11-15 08:53:00
3:14 AM,33.8,30.2,87,30.11,10.0,Calm,Calm,-,N/A,,Scattered Clouds,0,2012-11-15 09:14:00
3:33 AM,32.0,28.4,87,30.10,7.0,Calm,Calm,-,N/A,,Scattered Clouds,0,2012-11-15 09:33:00
3:54 AM,32.0,30.2,93,30.11,10.0,West,5.8,-,N/A,,Mostly Cloudy,260,2012-11-15 09:54:00
4:14 AM,33.8,30.2,87,30.11,10.0,SSW,4.6,-,N/A,,Overcast,210,2012-11-15 10:14:00
4:33 AM,33.8,30.2,87,30.11,10.0,SSW,3.5,-,N/A,,Overcast,210,2012-11-15 10:33:00
4:53 AM,33.8,30.2,87,30.10,10.0,South,4.6,-,N/A,,Overcast,180,2012-11-15 10:53:00
5:14 AM,32.0,30.2,93,30.10,10.0,SSW,3.5,-,N/A,,Overcast,210,2012-11-15 11:14:00
5:33 AM,33.8,30.2,87,30.10,10.0,WSW,4.6,-,N/A,,Overcast,240,2012-11-15 11:33:00
5:53 AM,33.8,30.2,87,30.10,10.0,SSW,3.5,-,N/A,,Scattered Clouds,210,2012-11-15 11:53:00
6:14 AM,33.8,30.2,87,30.10,10.0,WSW,4.6,-,N/A,,Overcast,240,2012-11-15 12:14:00
6:33 AM,33.8,30.2,87,30.11,10.0,SW,5.8,-,N/A,,Overcast,230,2012-11-15 12:33:00
6:53 AM,35.6,32.0,87,30.11,10.0,SW,8.1,-,N/A,,Overcast,220,2012-11-15 12:53:00
7:14 AM,35.6,32.0,87,30.12,10.0,SW,9.2,-,N/A,,Overcast,220,2012-11-15 13:14:00
7:33 AM,35.6,32.0,87,30.13,10.0,SW,9.2,-,N/A,,Overcast,220,2012-11-15 13:33:00
7:54 AM,35.6,32.0,87,30.14,10.0,SW,10.4,-,N/A,,Overcast,220,2012-11-15 13:54:00
8:14 AM,35.6,32.0,87,30.15,10.0,SW,10.4,-,N/A,,Overcast,230,2012-11-15 14:14:00
8:33 AM,37.4,33.8,87,30.15,10.0,SW,12.7,-,N/A,,Overcast,220,2012-11-15 14:33:00
8:54 AM,37.4,33.8,87,30.15,10.0,SW,11.5,-,N/A,,Overcast,220,2012-11-15 14:54:00
9:14 AM,39.2,33.8,81,30.16,10.0,SSW,10.4,-,N/A,,Scattered Clouds,200,2012-11-15 15:14:00
9:33 AM,41.0,33.8,76,30.16,10.0,SSW,9.2,-,N/A,,Clear,200,2012-11-15 15:33:00
9:54 AM,42.8,33.8,70,30.17,10.0,West,11.5,-,N/A,,Clear,260,2012-11-15 15:54:00
10:14 AM,42.8,33.8,70,30.17,10.0,West,12.7,-,N/A,,Clear,260,2012-11-15 16:14:00
10:33 AM,44.6,33.8,66,30.18,10.0,West,11.5,-,N/A,,Clear,260,2012-11-15 16:33:00
10:54 AM,44.6,33.8,66,30.19,10.0,WNW,15.0,-,N/A,,Clear,300,2012-11-15 16:54:00
11:14 AM,44.6,33.8,66,30.20,10.0,WNW,15.0,-,N/A,,Clear,300,2012-11-15 17:14:00
11:33 AM,44.6,32.0,61,30.21,10.0,WNW,12.7,-,N/A,,Clear,290,2012-11-15 17:33:00
11:54 AM,44.6,30.2,57,30.22,10.0,West,9.2,-,N/A,,Clear,280,2012-11-15 17:54:00
12:13 PM,44.6,24.8,46,30.22,10.0,WNW,15.0,23.0,N/A,,Clear,300,2012-11-15 18:13:00
12:33 PM,44.6,21.2,39,30.22,10.0,WNW,19.6,-,N/A,,Clear,300,2012-11-15 18:33:00
12:54 PM,44.6,21.2,39,30.23,10.0,NW,13.8,21.9,N/A,,Clear,320,2012-11-15 18:54:00
1:13 PM,44.6,23.0,43,30.23,10.0,NW,11.5,17.3,N/A,,Clear,310,2012-11-15 19:13:00
1:33 PM,44.6,14.0,29,30.24,10.0,NNW,10.4,-,N/A,,Clear,330,2012-11-15 19:33:00
1:54 PM,44.6,19.4,37,30.25,10.0,WNW,18.4,-,N/A,,Clear,300,2012-11-15 19:54:00
2:13 PM,44.6,14.0,29,30.26,10.0,NNW,11.5,18.4,N/A,,Clear,330,2012-11-15 20:13:00
2:33 PM,44.6,17.6,34,30.27,10.0,WNW,21.9,-,N/A,,Clear,300,2012-11-15 20:33:00
2:54 PM,44.6,3.2,18,30.28,10.0,NW,12.7,-,N/A,,Clear,320,2012-11-15 20:54:00
3:13 PM,44.6,8.6,23,30.30,10.0,NW,11.5,-,N/A,,Clear,320,2012-11-15 21:13:00
3:34 PM,42.8,3.2,19,30.31,10.0,NNW,11.5,-,N/A,,Clear,330,2012-11-15 21:34:00
3:53 PM,42.8,6.8,23,30.32,10.0,NW,9.2,-,N/A,,Clear,320,2012-11-15 21:53:00
4:13 PM,41.0,6.8,24,30.33,10.0,NW,13.8,-,N/A,,Clear,310,2012-11-15 22:13:00
4:34 PM,41.0,6.8,24,30.34,10.0,NW,11.5,-,N/A,,Clear,310,2012-11-15 22:34:00
4:53 PM,39.2,5.0,24,30.35,10.0,NW,10.4,-,N/A,,Clear,320,2012-11-15 22:53:00
5:14 PM,39.2,8.6,28,30.36,10.0,NW,12.7,-,N/A,,Clear,310,2012-11-15 23:14:00
5:33 PM,37.4,8.6,30,30.37,10.0,NW,8.1,-,N/A,,Clear,320,2012-11-15 23:33:00
5:53 PM,37.4,6.8,28,30.39,10.0,NW,8.1,-,N/A,,Clear,320,2012-11-15 23:53:00
6:14 PM,37.4,6.8,28,30.39,10.0,NW,8.1,-,N/A,,Clear,320,2012-11-16 00:14:00
6:33 PM,35.6,6.8,30,30.40,10.0,NNW,10.4,16.1,N/A,,Clear,330,2012-11-16 00:33:00
6:53 PM,35.6,6.8,30,30.41,10.0,NW,5.8,-,N/A,,Clear,320,2012-11-16 00:53:00
7:14 PM,35.6,6.8,30,30.41,10.0,NW,11.5,-,N/A,,Clear,320,2012-11-16 01:14:00
7:33 PM,35.6,5.0,28,30.41,10.0,NNW,10.4,-,N/A,,Clear,330,2012-11-16 01:33:00
7:54 PM,33.8,8.6,35,30.42,10.0,NNW,10.4,16.1,N/A,,Clear,340,2012-11-16 01:54:00
8:14 PM,33.8,6.8,32,30.43,10.0,NNW,5.8,10.4,N/A,,Clear,330,2012-11-16 02:14:00
8:33 PM,33.8,10.4,38,30.43,10.0,North,10.4,-,N/A,,Clear,350,2012-11-16 02:33:00
8:54 PM,33.8,8.6,35,30.44,10.0,North,10.4,16.1,N/A,,Clear,350,2012-11-16 02:54:00
9:14 PM,33.8,10.4,38,30.44,10.0,North,11.5,-,N/A,,Clear,350,2012-11-16 03:14:00
9:33 PM,32.0,12.2,44,30.45,10.0,North,12.7,-,N/A,,Clear,350,2012-11-16 03:33:00
9:54 PM,32.0,14.0,48,30.46,10.0,North,11.5,-,N/A,,Clear,350,2012-11-16 03:54:00
10:14 PM,32.0,14.0,48,30.47,10.0,North,11.5,-,N/A,,Clear,350,2012-11-16 04:14:00
10:33 PM,30.2,14.0,51,30.47,10.0,North,9.2,-,N/A,,Clear,360,2012-11-16 04:33:00
10:54 PM,32.0,15.8,51,30.47,10.0,North,11.5,-,N/A,,Clear,360,2012-11-16 04:54:00
11:14 PM,30.2,15.8,55,30.48,10.0,North,10.4,-,N/A,,Clear,10,2012-11-16 05:14:00
11:33 PM,30.2,17.6,60,30.48,10.0,North,10.4,-,N/A,,Clear,360,2012-11-16 05:33:00
11:54 PM,30.2,15.8,55,30.49,10.0,North,10.4,-,N/A,,Clear,10,2012-11-16 05:54:00